Flag for Norway Weather past 2 weeks in Askim, Norway

Now
54 °F

Passing clouds.


Feels Like: 54 °F
Forecast: 42 / 62 °F
Wind: 2 mph from East

Location: Rygge

Current Time: Sep 16, 2014 at 9:48:30 PM

Latest Report: Sep 16, 2014 at 9:20 PM


Visibility: N/A

Pressure: 30.33 "Hg

Humidity: 88%

Dew point: 50 °F

Location of AskimLocation

Historic Weather in Askim — Graph

°F

Askim temperature yesterday

Maximum temperature yesterday: 68 °F (at 3:50 PM)
Minimum temperature yesterday: 45 °F (at 5:20 AM)
Average temperature yesterday: 57 °F

Past Weeks' High & Low Weather Summary

 TemperatureHumidityPressure
High70 °F (Sep 6, 3:50 PM)100% (Sep 3, 12:20 AM)30.48 "Hg (Sep 3, 12:20 AM)
Low45 °F (Sep 14, 3:20 AM)43% (Sep 13, 5:50 PM)29.77 "Hg (Sep 9, 2:20 AM)
Average58 °F81%30.18 "Hg
* Reported Sep 1 8:20 PM — Sep 16 8:20 PM, Askim, Weather by CustomWeather, © 2014

Note: Actual official high and low records may vary slightly from our data, if they occured in-between our weather recording intervals... More about our weather records

Advertising

Askim weather history for previous 24 hours

 ConditionsComfort  
Time TempWeatherWind HumidityBarometerVisibility
8:20 PM
Sep 16
57 °FPassing clouds.3 mph77%30.30 "HgN/A
7:50 PM59 °FPassing clouds.5 mph68%30.30 "HgN/A
7:20 PM61 °FSunny.7 mph63%30.30 "Hg10 mi
6:50 PM63 °FPassing clouds.9 mph59%30.30 "HgN/A
6:20 PM63 °FSunny.6 mph64%30.30 "Hg10 mi
5:50 PM64 °FScattered clouds.6 mph60%30.33 "HgN/A
5:20 PM64 °FScattered clouds.6 mph60%30.33 "HgN/A
4:50 PM64 °FPassing clouds.9 mph60%30.33 "HgN/A
4:20 PM64 °FScattered clouds.8 mph64%30.33 "HgN/A
3:50 PM63 °FScattered clouds.9 mph64%30.33 "HgN/A
3:20 PM64 °FScattered clouds.7 mph60%30.33 "HgN/A
2:50 PM63 °FScattered clouds.7 mph64%30.36 "HgN/A
2:20 PM63 °FScattered clouds.7 mph64%30.36 "HgN/A
1:50 PM63 °FPartly sunny.5 mph64%30.36 "HgN/A
1:20 PM63 °FPartly sunny.6 mph64%30.36 "HgN/A
12:50 PM63 °FPassing clouds.2 mph64%30.39 "HgN/A
11:50 AM61 °FPassing clouds.3 mph72%30.39 "HgN/A
11:20 AM61 °FPassing clouds.3 mph72%30.39 "HgN/A
10:50 AM59 °FPassing clouds.5 mph77%30.39 "HgN/A
10:20 AM59 °FSunny.1 mph77%30.39 "Hg10 mi
9:50 AM55 °FPassing clouds.3 mph88%30.39 "HgN/A
9:20 AM54 °FSunny.2 mph94%30.39 "Hg10 mi
8:50 AM52 °FSunny.2 mph94%30.39 "Hg10 mi
8:20 AM46 °FSunny.2 mph100%30.39 "Hg10 mi
7:50 AM46 °FSunny.3 mph93%30.39 "Hg10 mi
7:20 AM45 °FClear.3 mph100%30.39 "Hg10 mi
6:50 AM45 °FFog.3 mph100%30.39 "Hg1 mi
6:20 AM46 °FFog.3 mph93%30.39 "Hg1 mi
5:50 AM46 °FFog.3 mph100%30.39 "Hg1 mi
5:20 AM46 °FFog.3 mph93%30.39 "Hg2 mi
4:50 AM46 °FCool.3 mph100%30.39 "Hg2 mi
4:20 AM46 °FCool.5 mph100%30.39 "Hg3 mi
3:50 AM48 °FCool.3 mph94%30.39 "Hg2 mi
3:20 AM48 °FCool.3 mph94%30.39 "Hg3 mi
2:50 AM48 °FCool.5 mph94%30.39 "Hg3 mi
2:20 AM48 °FCool.5 mph94%30.39 "Hg4 mi
1:50 AM48 °FCool.3 mph94%30.39 "HgN/A
1:20 AM48 °FCool.5 mph94%30.39 "HgN/A
12:50 AM48 °FCool.3 mph94%30.39 "HgN/A
12:20 AM48 °FCool.3 mph100%30.39 "HgN/A
11:50 PM
Sep 15
50 °FPassing clouds.3 mph94%30.42 "HgN/A
10:50 PM50 °FClear.3 mph94%30.39 "Hg10 mi
10:20 PM52 °FClear.2 mph88%30.39 "Hg10 mi
9:50 PM52 °FClear.1 mph88%30.39 "Hg10 mi
9:20 PM57 °FClear.5 mph72%30.39 "Hg10 mi
Weather by CustomWeather, © 2014

See weather overviewHow to use our weather pages